[[{"header":{"parameterUnit":"m.s-1","parameterCategory":1,"la1":30.2991,"la2":30.254,"lo1":-89.0895,"lo2":-89.0444,"dy":0.0017,"dx":0.0017,"nx":28,"ny":28,"refTime":"2025-05-27T21:00:00:Z","depth":0,"parameterNumber":2,"parameterNumberName":"U-component_of_WINDS"},"data":[0,0,0,0,0,0,0,0,0,0,0,0,0,0,0,0,0,0,0,0,0,0,0,0,0,0,0,0,0,0,0,0,0,0,0,0,0,0,0,0,0,0,0,0,0,0,0,0,0,0,0,0,0,0,0,0,0,0,3.4836,3.4838,0,3.5039,3.5041,3.5043,3.5032,3.503,3.5027,3.5024,3.523,3.5238,3.5246,0,0,0,0,0,0,0,0,0,0,0,0,0,3.4437,3.4444,3.4836,3.4838,3.4841,3.5038,3.5041,3.5044,3.5033,3.5029,3.5026,3.5023,3.5228,3.5237,3.5247,0,0,0,0,0,0,0,0,0,0,0,0,0,3.4622,3.4447,3.4835,3.4859,3.4863,3.5038,3.5041,3.5045,3.5034,3.5029,3.5025,3.5021,3.5224,3.5236,3.5248,3.5412,0,0,3.5286,3.5291,0,0,0,0,0,0,0,0,3.4611,3.4637,3.4853,3.4858,3.4863,3.5006,3.4976,3.5168,3.5035,3.4969,3.5024,3.5019,3.5159,3.5176,3.5224,3.5421,3.543,3.5287,3.5295,3.53,3.5303,0,0,0,0,0,0,0,3.4599,3.4628,3.4916,3.4856,3.4862,3.4859,3.4881,3.5012,3.5086,3.4974,3.4974,3.4998,3.5161,3.5212,3.5229,3.5433,3.5287,3.5298,3.5305,3.531,3.5773,3.5777,0,0,0,0,0,0,3.4581,3.4617,3.4909,3.4922,3.4724,3.487,3.4894,3.4964,3.5085,3.5099,3.5002,3.4997,3.5193,3.5214,3.5236,3.5433,3.53,3.5311,3.5318,3.5768,3.5774,3.5779,0,0,0,0,0,0,3.4572,3.4607,3.4901,3.477,3.4807,3.4881,3.4961,3.4971,3.5022,3.5105,3.5118,3.5041,3.5191,3.5219,3.5368,3.544,3.5317,3.5328,3.5762,3.577,3.5776,3.583,0,0,0,0,0,0,3.4561,3.4604,3.4667,3.4771,3.4814,3.503,3.4965,3.4978,3.5043,3.5039,3.5145,3.5159,3.5189,3.5349,3.538,3.5455,3.5338,3.5756,3.5765,3.5774,3.5822,3.5838,3.5852,0,0,0,0,0,3.4547,3.4675,3.4671,3.4706,3.4895,3.5035,3.5059,3.5092,3.5049,3.5113,3.5166,3.5155,3.5428,3.5365,3.5399,3.5479,3.5751,3.5763,3.5773,3.5815,3.5835,3.5852,0,0,0,0,0,0,3.4577,3.4689,3.4685,3.4851,3.4933,3.5033,3.5114,3.5112,3.5208,3.52,3.5237,3.5261,3.541,3.546,3.5388,3.5642,3.5584,3.5602,3.5604,3.5624,3.5638,3.5622,3.5348,0,0,0,0,0,3.4603,3.4708,3.48,3.4937,3.4978,3.5039,3.5101,3.512,3.5206,3.5241,3.5305,3.539,3.5494,3.5562,3.5663,3.583,3.5851,3.5902,3.5916,3.5928,3.5943,3.6033,3.6056,3.5815,3.5815,3.5815,0,0,3.4658,3.4732,3.4796,3.4945,3.5011,3.5117,3.5069,3.5184,3.5263,3.5259,3.5403,3.5453,3.5549,3.5707,3.578,3.5753,3.6015,3.5943,3.5951,3.596,3.6047,3.6069,3.6089,3.5823,3.5821,3.582,0,0,3.4812,3.4879,3.4999,3.5067,3.5167,3.5207,3.5236,3.5336,3.5369,3.5514,3.5512,3.5607,3.5786,3.5854,3.5912,3.6091,3.6083,3.6123,3.6201,3.6288,3.6307,3.6324,3.6385,3.6407,3.6138,3.6138,3.6138,0,3.4866,3.5028,3.5062,3.5178,3.5242,3.5244,3.5365,3.5428,3.5557,3.5601,3.5569,3.5793,3.5859,3.6031,3.6075,3.6123,3.6155,3.611,3.6302,3.6319,3.6335,3.6394,3.6417,3.6142,3.6142,3.6141,3.6141,0,3.5089,3.5201,3.5287,3.541,3.5485,3.5603,3.5654,3.5725,3.5737,3.5779,3.5926,3.6005,3.612,3.6163,3.6176,3.6338,3.6317,3.6294,3.6235,3.6361,3.6417,3.644,3.6148,3.6146,3.6145,3.6144,0,0,3.5267,3.5408,3.5438,3.5493,3.5604,3.5691,3.5809,3.5922,3.5982,3.607,3.6168,3.632,3.6298,3.6364,3.6385,3.6461,3.6595,3.6428,3.643,3.6454,3.6775,3.679,3.6816,3.6591,3.6596,3.66,3.6766,0,3.5431,3.564,3.5673,3.5856,3.5959,3.5961,3.6063,3.6142,3.6185,3.6277,3.6324,3.643,3.6394,3.6434,3.651,3.6562,3.6659,3.6551,3.6681,3.6685,3.6655,3.6846,3.6863,3.7017,3.6788,3.6792,3.6795,0,3.5649,3.5743,3.5936,3.6032,3.6076,3.6167,3.6273,3.6362,3.645,3.6476,3.6549,3.656,3.6681,3.6619,3.6785,3.671,3.6765,3.6799,3.6806,3.6817,3.6746,3.686,3.7067,3.7089,3.683,3.6827,3.6825,0,3.5757,3.5932,3.6069,3.6117,3.6232,3.6296,3.6347,3.6431,3.6497,3.6589,3.6631,3.6737,3.6794,3.6874,3.6913,3.6864,3.7075,3.7017,3.7098,3.7097,3.714,3.7137,3.7356,3.718,3.718,3.7179,3.7179,0,3.5934,3.6052,3.6119,3.6203,3.6334,3.6372,3.65,3.6549,3.6624,3.6717,3.6726,3.6813,3.686,3.6953,3.6985,3.7115,3.7142,3.7164,3.7171,3.7163,3.7159,3.7198,3.7187,3.7186,3.7184,3.7183,3.7182,0,3.6076,3.6126,3.6276,3.6372,3.6399,3.6492,3.6574,3.6655,3.6697,3.6815,3.6845,3.6911,3.7021,3.7068,3.7204,3.7225,3.7374,3.7374,3.7344,3.7346,3.7423,3.7414,3.7673,3.7708,3.7511,3.7513,3.7514,0,3.6185,3.6276,3.6382,3.6445,3.6497,3.6599,3.6666,3.6706,3.6774,3.6881,3.6949,3.706,3.715,3.7326,3.7386,3.7489,3.749,3.7573,3.7505,3.7493,3.7488,3.7481,3.7489,3.7585,3.7587,3.7589,3.759,0,3.6373,3.6393,3.6489,3.6593,3.6672,3.6756,3.6838,3.6889,3.6942,3.7018,3.7131,3.7201,3.734,3.7448,3.7555,3.7606,3.7606,3.7611,3.7635,3.7626,3.7604,3.7614,3.7375,3.7605,3.7603,3.7602,3.7601,3.7601,3.65,3.658,3.6666,3.6772,3.6838,3.6914,3.6995,3.7047,3.7142,3.7258,3.7276,3.7396,3.748,3.7623,3.7679,3.7772,3.7751,3.7786,3.7795,3.7802,3.7806,3.7591,3.7792,3.7792,3.7792,3.7791,3.7791,0,3.6686,3.6742,3.6839,3.6953,3.7036,3.703,3.712,3.7189,3.7295,3.7374,3.7463,3.7591,3.7697,3.7764,3.787,3.7932,3.7934,3.7958,3.7953,3.7964,3.782,3.7788,3.7954,3.7954,3.7954,3.7954,3.7954,3.7954,3.6793,3.6926,3.6956,3.7122,3.7176,3.7294,3.7346,3.7415,3.7478,3.7622,3.7709,3.7753,3.7827,3.7938,3.8033,3.805,3.8088,3.8112,3.8128,3.7991,3.7974,3.7958,3.7928,3.8121,3.8121,3.8263,3.8265,3.8266]},{"header":{"parameterUnit":"m.s-1","parameterCategory":1,"la1":30.2991,"la2":30.254,"lo1":-89.0895,"lo2":-89.0444,"dy":0.0017,"dx":0.0017,"nx":28,"ny":28,"refTime":"2025-05-27T21:00:00:Z","depth":0,"parameterNumber":3,"parameterNumberName":"V-component_of_WINDS"},"data":[0,0,0,0,0,0,0,0,0,0,0,0,0,0,0,0,0,0,0,0,0,0,0,0,0,0,0,0,0,0,0,0,0,0,0,0,0,0,0,0,0,0,0,0,0,0,0,0,0,0,0,0,0,0,0,0,0,0,0.5471,0.5475,0,0.5814,0.5818,0.5822,0.5889,0.5886,0.5884,0.5881,0.6243,0.6255,0.6267,0,0,0,0,0,0,0,0,0,0,0,0,0,0.4882,0.4893,0.5471,0.5475,0.5479,0.5813,0.5818,0.5823,0.589,0.5886,0.5883,0.588,0.6239,0.6253,0.6268,0,0,0,0,0,0,0,0,0,0,0,0,0,0.5173,0.4896,0.547,0.5553,0.5563,0.5812,0.5818,0.5824,0.589,0.5886,0.5882,0.5878,0.6234,0.6252,0.627,0.6463,0,0,0.6325,0.6333,0,0,0,0,0,0,0,0,0.5156,0.5194,0.5536,0.5547,0.556,0.5804,0.5743,0.6039,0.5891,0.5767,0.5881,0.5876,0.6101,0.613,0.6203,0.648,0.6496,0.6327,0.6338,0.6346,0.6351,0,0,0,0,0,0,0,0.5136,0.518,0.5607,0.5541,0.5556,0.5575,0.5612,0.5799,0.5953,0.5777,0.5783,0.5822,0.6107,0.6186,0.6212,0.6501,0.6326,0.6343,0.6354,0.6361,0.6954,0.6959,0,0,0,0,0,0,0.51,0.5163,0.5596,0.5617,0.5344,0.5589,0.563,0.573,0.5951,0.598,0.5825,0.5824,0.6156,0.6191,0.6225,0.6468,0.6346,0.6363,0.6373,0.695,0.6956,0.6961,0,0,0,0,0,0,0.5087,0.5138,0.5582,0.5392,0.545,0.5604,0.5715,0.5739,0.5818,0.5987,0.6015,0.5877,0.6155,0.62,0.6403,0.6481,0.6371,0.6388,0.6944,0.6951,0.6958,0.6952,0,0,0,0,0,0,0.507,0.5133,0.5206,0.5393,0.5459,0.5752,0.572,0.5749,0.5848,0.585,0.6043,0.6071,0.6155,0.6375,0.6421,0.6504,0.6402,0.6938,0.6947,0.6956,0.6946,0.6959,0.6969,0,0,0,0,0,0.5049,0.5194,0.521,0.5262,0.5554,0.5756,0.5795,0.5885,0.5854,0.5931,0.6038,0.6065,0.6464,0.6396,0.6448,0.6537,0.6933,0.6945,0.6955,0.6941,0.6956,0.6969,0,0,0,0,0,0,0.5017,0.522,0.524,0.5449,0.5584,0.5767,0.5867,0.5898,0.6047,0.6043,0.6151,0.6195,0.6392,0.6485,0.6405,0.6736,0.6697,0.6719,0.6669,0.6684,0.6695,0.6671,0.6417,0,0,0,0,0,0.5033,0.5177,0.5348,0.5516,0.5582,0.5712,0.5804,0.586,0.6007,0.6066,0.6189,0.6332,0.6489,0.6592,0.6746,0.6958,0.7003,0.7046,0.7057,0.7065,0.7084,0.7204,0.7226,0.6996,0.6996,0.6996,0,0,0.5071,0.5199,0.5285,0.5513,0.5624,0.5774,0.576,0.5919,0.6032,0.6091,0.629,0.6384,0.6552,0.676,0.6859,0.6844,0.7156,0.7079,0.7084,0.71,0.7217,0.7239,0.7258,0.7004,0.7002,0.7001,0,0,0.5216,0.5326,0.5479,0.5589,0.5757,0.5841,0.5877,0.6055,0.6119,0.6319,0.6366,0.6503,0.6772,0.6889,0.6984,0.7168,0.72,0.7216,0.7276,0.7392,0.741,0.7426,0.7494,0.7517,0.7233,0.7233,0.7233,0,0.5243,0.5467,0.5554,0.571,0.581,0.5864,0.6021,0.6125,0.6336,0.6404,0.6383,0.672,0.6837,0.7074,0.7118,0.7193,0.7239,0.7196,0.7399,0.7417,0.7434,0.75,0.7525,0.7234,0.7234,0.7234,0.7234,0,0.5493,0.5647,0.575,0.5947,0.6058,0.6214,0.6326,0.6429,0.6474,0.6562,0.6765,0.6906,0.7089,0.7149,0.7198,0.7393,0.7379,0.7377,0.7341,0.7455,0.7519,0.7545,0.7236,0.7235,0.7235,0.7235,0,0,0.5633,0.5872,0.5909,0.5999,0.6185,0.6308,0.6466,0.6641,0.6728,0.687,0.7007,0.7231,0.723,0.7337,0.7398,0.7499,0.7638,0.7486,0.7492,0.7511,0.7864,0.7866,0.7894,0.7657,0.7663,0.7667,0.7851,0,0.5802,0.6082,0.6163,0.6401,0.6546,0.6597,0.6735,0.6866,0.6951,0.7088,0.7183,0.7341,0.7326,0.7391,0.7493,0.7599,0.7711,0.7587,0.779,0.7796,0.7749,0.7927,0.7931,0.8098,0.7876,0.788,0.7884,0,0.6039,0.618,0.6431,0.6597,0.6661,0.6783,0.695,0.7079,0.7229,0.7283,0.74,0.7452,0.7621,0.7571,0.7807,0.772,0.7808,0.7872,0.7881,0.7907,0.7849,0.7961,0.8153,0.8179,0.7923,0.792,0.7917,0,0.6118,0.6372,0.6555,0.663,0.6828,0.6913,0.7,0.7144,0.7244,0.739,0.7456,0.7621,0.7713,0.784,0.7936,0.789,0.8163,0.8121,0.8216,0.8214,0.8276,0.8271,0.8488,0.8325,0.8325,0.8324,0.8324,0,0.6301,0.6453,0.6593,0.6706,0.6878,0.6969,0.7138,0.7228,0.7355,0.7488,0.7543,0.7668,0.7784,0.7925,0.8,0.8185,0.8225,0.8276,0.8296,0.8274,0.8267,0.8335,0.8328,0.8331,0.833,0.8328,0.8327,0,0.6421,0.652,0.6723,0.6892,0.6938,0.7057,0.7204,0.7316,0.74,0.7568,0.7613,0.7748,0.7915,0.8021,0.8236,0.8287,0.849,0.8504,0.8438,0.8448,0.8538,0.8529,0.8809,0.8852,0.8657,0.8659,0.866,0,0.6532,0.665,0.683,0.6921,0.7007,0.7154,0.7254,0.7348,0.7452,0.7628,0.772,0.789,0.8032,0.8298,0.8417,0.8581,0.8601,0.8688,0.8627,0.8601,0.8606,0.8599,0.8612,0.8699,0.8701,0.8702,0.8703,0,0.6721,0.6764,0.6905,0.7063,0.718,0.731,0.7441,0.7513,0.7629,0.7743,0.7912,0.8021,0.8238,0.8407,0.8581,0.8674,0.871,0.872,0.8752,0.8733,0.8691,0.8717,0.8469,0.8715,0.8714,0.8713,0.8712,0.8712,0.6844,0.695,0.7092,0.7248,0.7354,0.7473,0.7587,0.7684,0.7826,0.8007,0.8054,0.8232,0.8378,0.8614,0.871,0.8852,0.8841,0.8886,0.8898,0.8909,0.8911,0.8664,0.8884,0.8884,0.8884,0.8884,0.8883,0,0.7037,0.713,0.7271,0.7449,0.7572,0.7588,0.7732,0.7835,0.7989,0.812,0.8256,0.8452,0.8615,0.8744,0.8913,0.9002,0.9023,0.9044,0.904,0.9061,0.891,0.8867,0.9024,0.9024,0.9024,0.9024,0.9024,0.9024,0.7153,0.7334,0.7393,0.7627,0.772,0.7892,0.7973,0.8085,0.8189,0.8403,0.8538,0.8619,0.875,0.8928,0.9079,0.9113,0.9174,0.9192,0.923,0.9087,0.9072,0.9057,0.9018,0.9204,0.9204,0.937,0.9372,0.9373]}]]